Location: Góry Miechowskie
(50.3599°N, 20.1803°E)
Time: 21:43:25
(UTC+00:00)

Cosmos 2219 - Pass Details

Date: 23 September 2024
Orbit: 831 x 860 km, 71.1° (Epoch: 13 October)

Event Time Altitude Azimuth Distance (km) Brightness Sun altitude
Rises 01:18:18 0° 142° (SE) 3,398 6.3 -28.6°
Reaches altitude 10° 01:23:03 10° 106° (ESE) 2,479 6.0 -28.1°
Maximum altitude 01:24:14 11° 94° (E) 2,437 6.1 -27.9°
Drops below altitude 10° 01:25:26 10° 81° (E) 2,487 6.4 -27.8°
Sets 01:30:13 0° 46° (NE) 3,439 7.7 -27.2°
